NOAA 16 DEB

Satellite information

Favourite Embed

Satellite Type and Status

DEBRISIN ORBIT

Key statistics

Satellite NOAA 16 DEB at a glance.

Uptime

8996

Days in orbit

Revolutions

≈ 14.5

Per day

Orbit

SSO

Sun Synchronous Orbit

Inclination

98.8

Latest

Satellite identification and parameters

Extended collection of information and parameters for NOAA 16 DEB.

Object identification

Identified? True

Debris? True

Object name: NOAA 16 DEB

International designator: 2000-055PC

Object number (NORAD): 41663

Object ID (CCSDS): 41663

Country: UNITED STATES OF AMERICA (US)

Current information (Y/N): Y

RCS size: SMALL

Orbital parameters

Period: 99.546 minutes

Inclination: 98.8196 deg

SMA: 7115.031 km

Apoapsis: 746.421 km

Periapsis: 727.37 km

RAAN: 250.1243 deg

Eccentricy: 0.0013388

Argument of periapsis: 253.6483 deg

Mean anomaly: 106.3236 deg

Mean motion: 14.46563804 rev/day

Mean motion (dot): 0.00012017 rev/day2

B* drag term: 0.003338 1/REarth

Two-line elements (TLE)

Creation date: May 8, 2025, 3:01 a.m.

Reference frame: TEME

Reference center: EARTH

Epoch: May 7, 2025, 7:02 a.m. UTC

TLE line 0: 0 NOAA 16 DEB

TLE line 1: 1 41663U 00055PC 25127.29347156 .00012017 00000-0 33380-2 0 9994

TLE line 2: 2 41663 98.8196 250.1243 0013388 253.6483 106.3236 14.46563804469768

Live tracking on map

Real-time ground track for satellite NOAA 16 DEB.

In-orbit conjunctions

A list of the most updated potential collisions computed for object NOAA 16 DEB.

Target Orbit TCA Probability of collision Miss distance Type
FENGYUN 1C DEB SSO 2024-11-11 06:58:35 0.0001537932 632.0 (m) DEBRIS
SL-8 R/B LEO 2024-09-15 08:34:36 0.0002235929 279.0 (m) ROCKET BODY

Associated space launch

The NOAA K, L and M POES satellites begin the fifth generation of improved environmental monitoring in support of NOAA missions. The instrument payload has significant improvements and additions/deletions. The instrument changes have effected the spacecraft subsystems and data formats.

NOAA 16 DEB was lifted into orbit during the mission ‘Titan II SLV | NOAA 16’, on board a Titan II SLV space rocket.

The launch took place on Sept. 21, 2000, 10:22 a.m. from Space Launch Complex 4W.

For more information about the launch, click the button.

Launch to space Titan II SLV | NOAA 16
Titan II SLV | NOAA 16

Agency: N/A

Status: Launch Successful

Launch date: Sept. 21, 2000, 10:22 a.m. UTC

Rocket: Titan II SLV

Launch pad: Space Launch Complex 4W

Location: Vandenberg SFB, CA, USA

...

Latest news about this satellite

There are no fresh news available about this satellite. Check back as we update our databases every day.


Newsletter sign-up

Weekly statistics, charts and insights to help you stay on top of the space industry.